Location: Madingley
(52.2167°N, 0.0500°E)
Time: 12:02:27
(UTC+00:00)

Cosmos 2180 Rocket - Pass Details

Date: 15 May 2026
Orbit: 954 x 1003 km, 82.9° (Epoch: 5 June)

Event Time Altitude Azimuth Distance (km) Brightness Sun altitude
Exits shadow 23:32:26 29° 191° (SSW) 1,713 5.2 -18.5°
Maximum altitude 23:35:53 86° 279° (W) 996 4.5 -18.6°
Drops below altitude 10° 23:42:16 10° 10° (N) 2,772 8.1 -18.7°
Sets 23:44:49 0° 11° (N) 3,730 9.0 -18.7°
